Location: Eckley Miners' Village
(40.9930°N, 75.8630°W)
Time: 10:46:08
(UTC-04:00)

Vanguard 1 Rocket - Pass Details

Date: 10 March 2026
Orbit: 654 x 4213 km, 34.3° (Epoch: 11 April)

Event Time Altitude Azimuth Distance (km) Brightness Sun altitude
Rises 10:07:17 0° 245° (WSW) 3,006 9.8 28.2°
Reaches altitude 10° 10:09:40 10° 236° (SW) 2,050 9.1 28.5°
Maximum altitude 10:13:41 35° 169° (SSE) 1,107 8.9 29.2°
Drops below altitude 10° 10:18:34 10° 103° (ESE) 2,502 10.9 29.9°
Sets 10:21:48 0° 95° (E) 3,794 11.4 30.4°
